Year,Month,Day,Hour,Minute,Value (Times are PST for windgust in km/hr)
2005,11,03,00,00,3.20
2005,11,03,00,01,3.20
2005,11,03,00,02,4.80
2005,11,03,00,03,1.60
2005,11,03,00,04,1.60
2005,11,03,00,05,1.60
2005,11,03,00,06,1.60
2005,11,03,00,07,0.00
2005,11,03,00,08,3.20
2005,11,03,00,09,3.20
2005,11,03,00,10,1.60
2005,11,03,00,11,1.60
2005,11,03,00,12,3.20
2005,11,03,00,13,3.20
2005,11,03,00,14,3.20
2005,11,03,00,15,3.20
2005,11,03,00,16,3.20
2005,11,03,00,17,1.60
2005,11,03,00,18,0.00
2005,11,03,00,19,1.60
2005,11,03,00,20,1.60
2005,11,03,00,21,3.20
2005,11,03,00,22,3.20
2005,11,03,00,23,1.60
2005,11,03,00,24,1.60
2005,11,03,00,25,1.60
2005,11,03,00,26,3.20
2005,11,03,00,27,1.60
2005,11,03,00,28,3.20
2005,11,03,00,29,3.20
2005,11,03,00,30,3.20
2005,11,03,00,31,3.20
2005,11,03,00,32,4.80
2005,11,03,00,33,3.20
2005,11,03,00,34,1.60
2005,11,03,00,35,1.60
2005,11,03,00,36,0.00
2005,11,03,00,37,0.00
2005,11,03,00,38,0.00
2005,11,03,00,39,0.00
2005,11,03,00,40,0.00
2005,11,03,00,41,0.00
2005,11,03,00,42,1.60
2005,11,03,00,43,1.60
2005,11,03,00,44,3.20
2005,11,03,00,45,1.60
2005,11,03,00,46,0.00
2005,11,03,00,47,1.60
2005,11,03,00,48,3.20
2005,11,03,00,49,4.80
2005,11,03,00,50,3.20
2005,11,03,00,51,1.60
2005,11,03,00,52,0.00
2005,11,03,00,53,1.60
2005,11,03,00,54,3.20
2005,11,03,00,55,3.20
2005,11,03,00,56,3.20
2005,11,03,00,57,3.20
2005,11,03,00,58,3.20
2005,11,03,00,59,4.80
2005,11,03,01,00,3.20
2005,11,03,01,01,3.20
2005,11,03,01,02,1.60
2005,11,03,01,03,1.60
2005,11,03,01,04,1.60
2005,11,03,01,05,1.60
2005,11,03,01,06,1.60
2005,11,03,01,07,1.60
2005,11,03,01,08,1.60
2005,11,03,01,09,1.60
2005,11,03,01,10,0.00
2005,11,03,01,11,1.60
2005,11,03,01,12,0.00
2005,11,03,01,13,0.00
2005,11,03,01,14,0.00
2005,11,03,01,15,1.60
2005,11,03,01,16,1.60
2005,11,03,01,17,3.20
2005,11,03,01,18,3.20
2005,11,03,01,19,4.80
2005,11,03,01,20,4.80
2005,11,03,01,21,4.80
2005,11,03,01,22,3.20
2005,11,03,01,23,1.60
2005,11,03,01,24,3.20
2005,11,03,01,25,3.20
2005,11,03,01,26,3.20
2005,11,03,01,27,3.20
2005,11,03,01,28,3.20
2005,11,03,01,29,3.20
2005,11,03,01,30,4.80
2005,11,03,01,31,4.80
2005,11,03,01,32,3.20
2005,11,03,01,33,1.60
2005,11,03,01,34,1.60
2005,11,03,01,35,1.60
2005,11,03,01,36,3.20
2005,11,03,01,37,3.20
2005,11,03,01,38,3.20
2005,11,03,01,39,1.60
2005,11,03,01,40,0.00
2005,11,03,01,41,1.60
2005,11,03,01,42,1.60
2005,11,03,01,43,1.60
2005,11,03,01,44,3.20
2005,11,03,01,45,3.20
2005,11,03,01,46,4.80
2005,11,03,01,47,4.80
2005,11,03,01,48,3.20
2005,11,03,01,49,4.80
2005,11,03,01,50,3.20
2005,11,03,01,51,3.20
2005,11,03,01,52,3.20
2005,11,03,01,53,4.80
2005,11,03,01,54,4.80
2005,11,03,01,55,4.80
2005,11,03,01,56,3.20
2005,11,03,01,57,3.20
2005,11,03,01,58,3.20
2005,11,03,01,59,4.80
2005,11,03,02,00,3.20
2005,11,03,02,01,4.80
2005,11,03,02,02,3.20
2005,11,03,02,03,3.20
2005,11,03,02,04,3.20
2005,11,03,02,05,3.20
2005,11,03,02,06,4.80
2005,11,03,02,07,4.80
2005,11,03,02,08,4.80
2005,11,03,02,09,6.40
2005,11,03,02,10,6.40
2005,11,03,02,11,6.40
2005,11,03,02,12,4.80
2005,11,03,02,13,3.20
2005,11,03,02,14,3.20
2005,11,03,02,15,3.20
2005,11,03,02,16,0.00
2005,11,03,02,17,0.00
2005,11,03,02,18,0.00
2005,11,03,02,19,0.00
2005,11,03,02,20,0.00
2005,11,03,02,21,3.20
2005,11,03,02,22,1.60
2005,11,03,02,23,1.60
2005,11,03,02,24,3.20
2005,11,03,02,25,3.20
2005,11,03,02,26,4.80
2005,11,03,02,27,6.40
2005,11,03,02,28,4.80
2005,11,03,02,29,4.80
2005,11,03,02,30,3.20
2005,11,03,02,31,3.20
2005,11,03,02,32,3.20
2005,11,03,02,33,3.20
2005,11,03,02,34,3.20
2005,11,03,02,35,3.20
2005,11,03,02,36,4.80
2005,11,03,02,37,1.60
2005,11,03,02,38,1.60
2005,11,03,02,39,0.00
2005,11,03,02,40,0.00
2005,11,03,02,41,1.60
2005,11,03,02,42,4.80
2005,11,03,02,43,1.60
2005,11,03,02,44,3.20
2005,11,03,02,45,3.20
2005,11,03,02,46,1.60
2005,11,03,02,47,0.00
2005,11,03,02,48,0.00
2005,11,03,02,49,0.00
2005,11,03,02,50,0.00
2005,11,03,02,51,1.60
2005,11,03,02,52,1.60
2005,11,03,02,53,3.20
2005,11,03,02,54,4.80
2005,11,03,02,55,3.20
2005,11,03,02,56,1.60
2005,11,03,02,57,0.00
2005,11,03,02,58,4.80
2005,11,03,02,59,4.80
2005,11,03,03,00,6.40
2005,11,03,03,01,4.80
2005,11,03,03,02,6.40
2005,11,03,03,03,6.40
2005,11,03,03,04,4.80
2005,11,03,03,05,6.40
2005,11,03,03,06,6.40
2005,11,03,03,07,8.10
2005,11,03,03,08,8.10
2005,11,03,03,09,4.80
2005,11,03,03,10,3.20
2005,11,03,03,11,4.80
2005,11,03,03,12,6.40
2005,11,03,03,13,6.40
2005,11,03,03,14,4.80
2005,11,03,03,15,4.80
2005,11,03,03,16,4.80
2005,11,03,03,17,4.80
2005,11,03,03,18,3.20
2005,11,03,03,19,6.40
2005,11,03,03,20,8.10
2005,11,03,03,21,4.80
2005,11,03,03,22,4.80
2005,11,03,03,23,3.20
2005,11,03,03,24,3.20
2005,11,03,03,25,1.60
2005,11,03,03,26,4.80
2005,11,03,03,27,4.80
2005,11,03,03,28,4.80
2005,11,03,03,29,6.40
2005,11,03,03,30,4.80
2005,11,03,03,31,3.20
2005,11,03,03,32,4.80
2005,11,03,03,33,4.80
2005,11,03,03,34,6.40
2005,11,03,03,35,3.20
2005,11,03,03,36,3.20
2005,11,03,03,37,3.20
2005,11,03,03,38,4.80
2005,11,03,03,39,4.80
2005,11,03,03,40,4.80
2005,11,03,03,41,3.20
2005,11,03,03,42,3.20
2005,11,03,03,43,1.60
2005,11,03,03,44,1.60
2005,11,03,03,45,0.00
2005,11,03,03,46,4.80
2005,11,03,03,47,4.80
2005,11,03,03,48,4.80
2005,11,03,03,49,3.20
2005,11,03,03,50,4.80
2005,11,03,03,51,3.20
2005,11,03,03,52,4.80
2005,11,03,03,53,6.40
2005,11,03,03,54,3.20
2005,11,03,03,55,4.80
2005,11,03,03,56,4.80
2005,11,03,03,57,4.80
2005,11,03,03,58,4.80
2005,11,03,03,59,3.20
2005,11,03,04,00,4.80
2005,11,03,04,01,4.80
2005,11,03,04,02,4.80
2005,11,03,04,03,4.80
2005,11,03,04,04,8.10
2005,11,03,04,05,4.80
2005,11,03,04,06,4.80
2005,11,03,04,07,6.40
2005,11,03,04,08,8.10
2005,11,03,04,09,6.40
2005,11,03,04,10,8.10
2005,11,03,04,11,6.40
2005,11,03,04,12,6.40
2005,11,03,04,13,8.10
2005,11,03,04,14,6.40
2005,11,03,04,15,6.40
2005,11,03,04,16,6.40
2005,11,03,04,17,11.30
2005,11,03,04,18,6.40
2005,11,03,04,19,4.80
2005,11,03,04,20,6.40
2005,11,03,04,21,6.40
2005,11,03,04,22,8.10
2005,11,03,04,23,4.80
2005,11,03,04,24,4.80
2005,11,03,04,25,6.40
2005,11,03,04,26,6.40
2005,11,03,04,27,6.40
2005,11,03,04,28,8.10
2005,11,03,04,29,8.10
2005,11,03,04,30,4.80
2005,11,03,04,31,9.60
2005,11,03,04,32,9.60
2005,11,03,04,33,9.60
2005,11,03,04,34,6.40
2005,11,03,04,35,6.40
2005,11,03,04,36,6.40
2005,11,03,04,37,6.40
2005,11,03,04,38,6.40
2005,11,03,04,39,6.40
2005,11,03,04,40,6.40
2005,11,03,04,41,6.40
2005,11,03,04,42,6.40
2005,11,03,04,43,8.10
2005,11,03,04,44,8.10
2005,11,03,04,45,4.80
2005,11,03,04,46,6.40
2005,11,03,04,47,8.10
2005,11,03,04,48,6.40
2005,11,03,04,49,8.10
2005,11,03,04,50,6.40
2005,11,03,04,51,4.80
2005,11,03,04,52,1.60
2005,11,03,04,53,4.80
2005,11,03,04,54,4.80
2005,11,03,04,55,6.40
2005,11,03,04,56,1.60
2005,11,03,04,57,1.60
2005,11,03,04,58,0.00
2005,11,03,04,59,1.60
2005,11,03,05,00,0.00
2005,11,03,05,01,0.00
2005,11,03,05,02,1.60
2005,11,03,05,03,1.60
2005,11,03,05,04,3.20
2005,11,03,05,05,1.60
2005,11,03,05,06,0.00
2005,11,03,05,07,3.20
2005,11,03,05,08,3.20
2005,11,03,05,09,4.80
2005,11,03,05,10,8.10
2005,11,03,05,11,6.40
2005,11,03,05,12,9.60
2005,11,03,05,13,11.30
2005,11,03,05,14,4.80
2005,11,03,05,15,16.10
2005,11,03,05,16,22.50
2005,11,03,05,17,20.90
2005,11,03,05,18,14.50
2005,11,03,05,19,25.70
2005,11,03,05,20,29.00
2005,11,03,05,21,20.90
2005,11,03,05,22,16.10
2005,11,03,05,23,16.10
2005,11,03,05,24,24.20
2005,11,03,05,25,25.70
2005,11,03,05,26,20.90
2005,11,03,05,27,25.70
2005,11,03,05,28,24.20
2005,11,03,05,29,29.00
2005,11,03,05,30,20.90
2005,11,03,05,31,20.90
2005,11,03,05,32,45.10
2005,11,03,05,33,37.00
2005,11,03,05,34,25.70
2005,11,03,05,35,19.30
2005,11,03,05,36,30.60
2005,11,03,05,37,30.60
2005,11,03,05,38,24.20
2005,11,03,05,39,24.20
2005,11,03,05,40,17.70
2005,11,03,05,41,25.70
2005,11,03,05,42,29.00
2005,11,03,05,43,29.00
2005,11,03,05,44,27.40
2005,11,03,05,45,38.60
2005,11,03,05,46,30.60
2005,11,03,05,47,41.80
2005,11,03,05,48,30.60
2005,11,03,05,49,41.80
2005,11,03,05,50,27.40
2005,11,03,05,51,32.20
2005,11,03,05,52,32.20
2005,11,03,05,53,38.60
2005,11,03,05,54,38.60
2005,11,03,05,55,35.40
2005,11,03,05,56,27.40
2005,11,03,05,57,29.00
2005,11,03,05,58,22.50
2005,11,03,05,59,27.40
2005,11,03,06,00,56.30
2005,11,03,06,01,32.20
2005,11,03,06,02,24.20
2005,11,03,06,03,37.00
2005,11,03,06,04,43.50
2005,11,03,06,05,30.60
2005,11,03,06,06,22.50
2005,11,03,06,07,27.40
2005,11,03,06,08,25.70
2005,11,03,06,09,24.20
2005,11,03,06,10,33.80
2005,11,03,06,11,30.60
2005,11,03,06,12,32.20
2005,11,03,06,13,33.80
2005,11,03,06,14,30.60
2005,11,03,06,15,29.00
2005,11,03,06,16,25.70
2005,11,03,06,17,24.20
2005,11,03,06,18,30.60
2005,11,03,06,19,41.80
2005,11,03,06,20,32.20
2005,11,03,06,21,35.40
2005,11,03,06,22,41.80
2005,11,03,06,23,38.60
2005,11,03,06,24,43.50
2005,11,03,06,25,41.80
2005,11,03,06,26,49.90
2005,11,03,06,27,43.50
2005,11,03,06,28,32.20
2005,11,03,06,29,20.90
2005,11,03,06,30,48.30
2005,11,03,06,31,41.80
2005,11,03,06,32,30.60
2005,11,03,06,33,56.30
2005,11,03,06,34,43.50
2005,11,03,06,35,49.90
2005,11,03,06,36,45.10
2005,11,03,06,37,46.70
2005,11,03,06,38,49.90
2005,11,03,06,39,33.80
2005,11,03,06,40,41.80
2005,11,03,06,41,53.10
2005,11,03,06,42,35.40
2005,11,03,06,43,35.40
2005,11,03,06,44,30.60
2005,11,03,06,45,37.00
2005,11,03,06,46,35.40
2005,11,03,06,47,30.60
2005,11,03,06,48,32.20
2005,11,03,06,49,45.10
2005,11,03,06,50,40.20
2005,11,03,06,51,46.70
2005,11,03,06,52,38.60
2005,11,03,06,53,45.10
2005,11,03,06,54,48.30
2005,11,03,06,55,48.30
2005,11,03,06,56,30.60
2005,11,03,06,57,32.20
2005,11,03,06,58,20.90
2005,11,03,06,59,22.50
2005,11,03,07,00,33.80
2005,11,03,07,01,29.00
2005,11,03,07,02,43.50
2005,11,03,07,03,46.70
2005,11,03,07,04,20.90
2005,11,03,07,05,20.90
2005,11,03,07,06,37.00
2005,11,03,07,07,38.60
2005,11,03,07,08,29.00
2005,11,03,07,09,33.80
2005,11,03,07,10,29.00
2005,11,03,07,11,30.60
2005,11,03,07,12,37.00
2005,11,03,07,13,30.60
2005,11,03,07,14,35.40
2005,11,03,07,15,20.90
2005,11,03,07,16,25.70
2005,11,03,07,17,27.40
2005,11,03,07,18,40.20
2005,11,03,07,19,64.40
2005,11,03,07,20,46.70
2005,11,03,07,21,41.80
2005,11,03,07,22,53.10
2005,11,03,07,23,53.10
2005,11,03,07,24,56.30
2005,11,03,07,25,57.90
2005,11,03,07,26,56.30
2005,11,03,07,27,41.80
2005,11,03,07,28,62.70
2005,11,03,07,29,37.00
2005,11,03,07,30,54.70
2005,11,03,07,31,62.70
2005,11,03,07,32,62.70
2005,11,03,07,33,62.70
2005,11,03,07,34,62.70
2005,11,03,07,35,49.90
2005,11,03,07,36,56.30
2005,11,03,07,37,49.90
2005,11,03,07,38,54.70
2005,11,03,07,39,49.90
2005,11,03,07,40,53.10
2005,11,03,07,41,67.60
2005,11,03,07,42,64.40
2005,11,03,07,43,53.10
2005,11,03,07,44,49.90
2005,11,03,07,45,45.10
2005,11,03,07,46,57.90
2005,11,03,07,47,59.50
2005,11,03,07,48,43.50
2005,11,03,07,49,41.80
2005,11,03,07,50,48.30
2005,11,03,07,51,49.90
2005,11,03,07,52,51.50
2005,11,03,07,53,64.40
2005,11,03,07,54,56.30
2005,11,03,07,55,57.90
2005,11,03,07,56,57.90
2005,11,03,07,57,53.10
2005,11,03,07,58,48.30
2005,11,03,07,59,62.70
2005,11,03,08,00,53.10
2005,11,03,08,01,62.70
2005,11,03,08,02,59.50
2005,11,03,08,03,61.20
2005,11,03,08,04,67.60
2005,11,03,08,05,61.20
2005,11,03,08,06,46.70
2005,11,03,08,07,56.30
2005,11,03,08,08,46.70
2005,11,03,08,09,59.50
2005,11,03,08,10,49.90
2005,11,03,08,11,62.70
2005,11,03,08,12,38.60
2005,11,03,08,13,53.10
2005,11,03,08,14,40.20
2005,11,03,08,15,48.30
2005,11,03,08,16,48.30
2005,11,03,08,17,49.90
2005,11,03,08,18,64.40
2005,11,03,08,19,69.20
2005,11,03,08,20,53.10
2005,11,03,08,21,64.40
2005,11,03,08,22,61.20
2005,11,03,08,23,54.70
2005,11,03,08,24,40.20
2005,11,03,08,25,41.80
2005,11,03,08,26,49.90
2005,11,03,08,27,70.80
2005,11,03,08,28,49.90
2005,11,03,08,29,51.50
2005,11,03,08,30,51.50
2005,11,03,08,31,72.40
2005,11,03,08,32,61.20
2005,11,03,08,33,61.20
2005,11,03,08,34,57.90
2005,11,03,08,35,54.70
2005,11,03,08,36,67.60
2005,11,03,08,37,59.50
2005,11,03,08,38,49.90
2005,11,03,08,39,59.50
2005,11,03,08,40,45.10
2005,11,03,08,41,53.10
2005,11,03,08,42,64.40
2005,11,03,08,43,54.70
2005,11,03,08,44,43.50
2005,11,03,08,45,51.50
2005,11,03,08,46,59.50
2005,11,03,08,47,51.50
2005,11,03,08,48,61.20
2005,11,03,08,49,43.50
2005,11,03,08,50,64.40
2005,11,03,08,51,57.90
2005,11,03,08,52,62.70
2005,11,03,08,53,54.70
2005,11,03,08,54,46.70
2005,11,03,08,55,30.60
2005,11,03,08,56,56.30
2005,11,03,08,57,45.10
2005,11,03,08,58,49.90
2005,11,03,08,59,56.30
2005,11,03,09,00,46.70
2005,11,03,09,01,64.40
2005,11,03,09,02,49.90
2005,11,03,09,03,67.60
2005,11,03,09,04,57.90
2005,11,03,09,05,59.50
2005,11,03,09,06,54.70
2005,11,03,09,07,49.90
2005,11,03,09,08,49.90
2005,11,03,09,09,57.90
2005,11,03,09,10,62.70
2005,11,03,09,11,53.10
2005,11,03,09,12,54.70
2005,11,03,09,13,53.10
2005,11,03,09,14,59.50
2005,11,03,09,15,57.90
2005,11,03,09,16,53.10
2005,11,03,09,17,40.20
2005,11,03,09,18,45.10
2005,11,03,09,19,49.90
2005,11,03,09,20,48.30
2005,11,03,09,21,61.20
2005,11,03,09,22,46.70
2005,11,03,09,23,61.20
2005,11,03,09,24,46.70
2005,11,03,09,25,38.60
2005,11,03,09,26,46.70
2005,11,03,09,27,57.90
2005,11,03,09,28,43.50
2005,11,03,09,29,67.60
2005,11,03,09,30,45.10
2005,11,03,09,31,38.60
2005,11,03,09,32,49.90
2005,11,03,09,33,49.90
2005,11,03,09,34,43.50
2005,11,03,09,35,57.90
2005,11,03,09,36,56.30
2005,11,03,09,37,57.90
2005,11,03,09,38,46.70
2005,11,03,09,39,64.40
2005,11,03,09,40,72.40
2005,11,03,09,41,43.50
2005,11,03,09,42,48.30
2005,11,03,09,43,43.50
2005,11,03,09,44,56.30
2005,11,03,09,45,59.50
2005,11,03,09,46,51.50
2005,11,03,09,47,64.40
2005,11,03,09,48,53.10
2005,11,03,09,49,54.70
2005,11,03,09,50,45.10
2005,11,03,09,51,62.70
2005,11,03,09,52,69.20
2005,11,03,09,53,48.30
2005,11,03,09,54,40.20
2005,11,03,09,55,38.60
2005,11,03,09,56,53.10
2005,11,03,09,57,61.20
2005,11,03,09,58,49.90
2005,11,03,09,59,40.20
2005,11,03,10,00,17.70
2005,11,03,10,01,17.70
2005,11,03,10,02,30.60
2005,11,03,10,03,64.40
2005,11,03,10,04,51.50
2005,11,03,10,05,41.80
2005,11,03,10,06,32.20
2005,11,03,10,07,41.80
2005,11,03,10,08,67.60
2005,11,03,10,09,46.70
2005,11,03,10,10,41.80
2005,11,03,10,11,64.40
2005,11,03,10,12,49.90
2005,11,03,10,13,38.60
2005,11,03,10,14,56.30
2005,11,03,10,15,48.30
2005,11,03,10,16,32.20
2005,11,03,10,17,35.40
2005,11,03,10,18,40.20
2005,11,03,10,19,40.20
2005,11,03,10,20,45.10
2005,11,03,10,21,37.00
2005,11,03,10,22,54.70
2005,11,03,10,23,45.10
2005,11,03,10,24,53.10
2005,11,03,10,25,51.50
2005,11,03,10,26,38.60
2005,11,03,10,27,62.70
2005,11,03,10,28,45.10
2005,11,03,10,29,33.80
2005,11,03,10,30,48.30
2005,11,03,10,31,49.90
2005,11,03,10,32,35.40
2005,11,03,10,33,20.90
2005,11,03,10,34,32.20
2005,11,03,10,35,40.20
2005,11,03,10,36,62.70
2005,11,03,10,37,46.70
2005,11,03,10,38,27.40
2005,11,03,10,39,37.00
2005,11,03,10,40,35.40
2005,11,03,10,41,33.80
2005,11,03,10,42,35.40
2005,11,03,10,43,37.00
2005,11,03,10,44,38.60
2005,11,03,10,45,53.10
2005,11,03,10,46,49.90
2005,11,03,10,47,53.10
2005,11,03,10,48,35.40
2005,11,03,10,49,33.80
2005,11,03,10,50,56.30
2005,11,03,10,51,37.00
2005,11,03,10,52,30.60
2005,11,03,10,53,53.10
2005,11,03,10,54,59.50
2005,11,03,10,55,53.10
2005,11,03,10,56,33.80
2005,11,03,10,57,40.20
2005,11,03,10,58,24.20
2005,11,03,10,59,30.60
2005,11,03,11,00,49.90
2005,11,03,11,01,46.70
2005,11,03,11,02,40.20
2005,11,03,11,03,33.80
2005,11,03,11,04,57.90
2005,11,03,11,05,56.30
2005,11,03,11,06,46.70
2005,11,03,11,07,37.00
2005,11,03,11,08,38.60
2005,11,03,11,09,40.20
2005,11,03,11,10,49.90
2005,11,03,11,11,51.50
2005,11,03,11,12,38.60
2005,11,03,11,13,48.30
2005,11,03,11,14,53.10
2005,11,03,11,15,37.00
2005,11,03,11,16,56.30
2005,11,03,11,17,46.70
2005,11,03,11,18,29.00
2005,11,03,11,19,51.50
2005,11,03,11,20,40.20
2005,11,03,11,21,24.20
2005,11,03,11,22,20.90
2005,11,03,11,23,37.00
2005,11,03,11,24,43.50
2005,11,03,11,25,35.40
2005,11,03,11,26,49.90
2005,11,03,11,27,67.60
2005,11,03,11,28,46.70
2005,11,03,11,29,43.50
2005,11,03,11,30,49.90
2005,11,03,11,31,37.00
2005,11,03,11,32,40.20
2005,11,03,11,33,62.70
2005,11,03,11,34,62.70
2005,11,03,11,35,32.20
2005,11,03,11,36,33.80
2005,11,03,11,37,29.00
2005,11,03,11,38,38.60
2005,11,03,11,39,37.00
2005,11,03,11,40,35.40
2005,11,03,11,41,40.20
2005,11,03,11,42,43.50
2005,11,03,11,43,43.50
2005,11,03,11,44,37.00
2005,11,03,11,45,43.50
2005,11,03,11,46,32.20
2005,11,03,11,47,38.60
2005,11,03,11,48,43.50
2005,11,03,11,49,30.60
2005,11,03,11,50,27.40
2005,11,03,11,51,43.50
2005,11,03,11,52,41.80
2005,11,03,11,53,43.50
2005,11,03,11,54,33.80
2005,11,03,11,55,27.40
2005,11,03,11,56,19.30
2005,11,03,11,57,37.00
2005,11,03,11,58,37.00
2005,11,03,11,59,29.00
2005,11,03,12,00,30.60
2005,11,03,12,01,27.40
2005,11,03,12,02,27.40
2005,11,03,12,03,32.20
2005,11,03,12,04,27.40
2005,11,03,12,05,25.70
2005,11,03,12,06,27.40
2005,11,03,12,07,25.70
2005,11,03,12,08,24.20
2005,11,03,12,09,25.70
2005,11,03,12,10,24.20
2005,11,03,12,11,25.70
2005,11,03,12,12,37.00
2005,11,03,12,13,35.40
2005,11,03,12,14,32.20
2005,11,03,12,15,27.40
2005,11,03,12,16,29.00
2005,11,03,12,17,30.60
2005,11,03,12,18,27.40
2005,11,03,12,19,19.30
2005,11,03,12,20,27.40
2005,11,03,12,21,20.90
2005,11,03,12,22,27.40
2005,11,03,12,23,20.90
2005,11,03,12,24,24.20
2005,11,03,12,25,20.90
2005,11,03,12,26,24.20
2005,11,03,12,27,25.70
2005,11,03,12,28,19.30
2005,11,03,12,29,25.70
2005,11,03,12,30,22.50
2005,11,03,12,31,17.70
2005,11,03,12,32,16.10
2005,11,03,12,33,22.50
2005,11,03,12,34,22.50
2005,11,03,12,35,19.30
2005,11,03,12,36,14.50
2005,11,03,12,37,16.10
2005,11,03,12,38,16.10
2005,11,03,12,39,20.90
2005,11,03,12,40,16.10
2005,11,03,12,41,16.10
2005,11,03,12,42,17.70
2005,11,03,12,43,17.70
2005,11,03,12,44,19.30
2005,11,03,12,45,19.30
2005,11,03,12,46,16.10
2005,11,03,12,47,11.30
2005,11,03,12,48,20.90
2005,11,03,12,49,19.30
2005,11,03,12,50,20.90
2005,11,03,12,51,20.90
2005,11,03,12,52,14.50
2005,11,03,12,53,17.70
2005,11,03,12,54,14.50
2005,11,03,12,55,19.30
2005,11,03,12,56,16.10
2005,11,03,12,57,14.50
2005,11,03,12,58,17.70
2005,11,03,12,59,20.90
2005,11,03,13,00,16.10
2005,11,03,13,01,6.40
2005,11,03,13,02,16.10
2005,11,03,13,03,19.30
2005,11,03,13,04,12.90
2005,11,03,13,05,16.10
2005,11,03,13,06,16.10
2005,11,03,13,07,9.60
2005,11,03,13,08,14.50
2005,11,03,13,09,17.70
2005,11,03,13,10,12.90
2005,11,03,13,11,11.30
2005,11,03,13,12,12.90
2005,11,03,13,13,11.30
2005,11,03,13,14,16.10
2005,11,03,13,15,11.30
2005,11,03,13,16,17.70
2005,11,03,13,17,17.70
2005,11,03,13,18,16.10
2005,11,03,13,19,17.70
2005,11,03,13,20,24.20
2005,11,03,13,21,24.20
2005,11,03,13,22,19.30
2005,11,03,13,23,19.30
2005,11,03,13,24,14.50
2005,11,03,13,25,22.50
2005,11,03,13,26,20.90
2005,11,03,13,27,19.30
2005,11,03,13,28,16.10
2005,11,03,13,29,11.30
2005,11,03,13,30,17.70
2005,11,03,13,31,19.30
2005,11,03,13,32,20.90
2005,11,03,13,33,17.70
2005,11,03,13,34,17.70
2005,11,03,13,35,16.10
2005,11,03,13,36,25.70
2005,11,03,13,37,16.10
2005,11,03,13,38,17.70
2005,11,03,13,39,17.70
2005,11,03,13,40,14.50
2005,11,03,13,41,16.10
2005,11,03,13,42,17.70
2005,11,03,13,43,20.90
2005,11,03,13,44,20.90
2005,11,03,13,45,19.30
2005,11,03,13,46,19.30
2005,11,03,13,47,19.30
2005,11,03,13,48,20.90
2005,11,03,13,49,14.50
2005,11,03,13,50,16.10
2005,11,03,13,51,20.90
2005,11,03,13,52,19.30
2005,11,03,13,53,16.10
2005,11,03,13,54,6.40
2005,11,03,13,55,9.60
2005,11,03,13,56,9.60
2005,11,03,13,57,8.10
2005,11,03,13,58,16.10
2005,11,03,13,59,17.70
2005,11,03,14,00,16.10
2005,11,03,14,01,16.10
2005,11,03,14,02,20.90
2005,11,03,14,03,22.50
2005,11,03,14,04,11.30
2005,11,03,14,05,22.50
2005,11,03,14,06,16.10
2005,11,03,14,07,8.10
2005,11,03,14,08,11.30
2005,11,03,14,09,11.30
2005,11,03,14,10,14.50
2005,11,03,14,11,17.70
2005,11,03,14,12,16.10
2005,11,03,14,13,17.70
2005,11,03,14,14,14.50
2005,11,03,14,15,24.20
2005,11,03,14,16,22.50
2005,11,03,14,17,27.40
2005,11,03,14,18,22.50
2005,11,03,14,19,17.70
2005,11,03,14,20,16.10
2005,11,03,14,21,16.10
2005,11,03,14,22,11.30
2005,11,03,14,23,17.70
2005,11,03,14,24,14.50
2005,11,03,14,25,8.10
2005,11,03,14,26,11.30
2005,11,03,14,27,11.30
2005,11,03,14,28,19.30
2005,11,03,14,29,20.90
2005,11,03,14,30,17.70
2005,11,03,14,31,11.30
2005,11,03,14,32,9.60
2005,11,03,14,33,11.30
2005,11,03,14,34,6.40
2005,11,03,14,35,17.70
2005,11,03,14,36,11.30
2005,11,03,14,37,19.30
2005,11,03,14,38,17.70
2005,11,03,14,39,16.10
2005,11,03,14,40,20.90
2005,11,03,14,41,17.70
2005,11,03,14,42,12.90
2005,11,03,14,43,9.60
2005,11,03,14,44,4.80
2005,11,03,14,45,6.40
2005,11,03,14,46,8.10
2005,11,03,14,47,8.10
2005,11,03,14,48,8.10
2005,11,03,14,49,8.10
2005,11,03,14,50,3.20
2005,11,03,14,51,11.30
2005,11,03,14,52,12.90
2005,11,03,14,53,3.20
2005,11,03,14,54,6.40
2005,11,03,14,55,6.40
2005,11,03,14,56,4.80
2005,11,03,14,57,6.40
2005,11,03,14,58,0.00
2005,11,03,14,59,0.00
2005,11,03,15,00,0.00
2005,11,03,15,01,6.40
2005,11,03,15,02,11.30
2005,11,03,15,03,8.10
2005,11,03,15,04,16.10
2005,11,03,15,05,9.60
2005,11,03,15,06,6.40
2005,11,03,15,07,9.60
2005,11,03,15,08,8.10
2005,11,03,15,09,20.90
2005,11,03,15,10,12.90
2005,11,03,15,11,9.60
2005,11,03,15,12,16.10
2005,11,03,15,13,6.40
2005,11,03,15,14,17.70
2005,11,03,15,15,14.50
2005,11,03,15,16,14.50
2005,11,03,15,17,11.30
2005,11,03,15,18,9.60
2005,11,03,15,19,6.40
2005,11,03,15,20,9.60
2005,11,03,15,21,17.70
2005,11,03,15,22,9.60
2005,11,03,15,23,16.10
2005,11,03,15,24,11.30
2005,11,03,15,25,11.30
2005,11,03,15,26,16.10
2005,11,03,15,27,19.30
2005,11,03,15,28,16.10
2005,11,03,15,29,8.10
2005,11,03,15,30,19.30
2005,11,03,15,31,11.30
2005,11,03,15,32,24.20
2005,11,03,15,33,9.60
2005,11,03,15,34,19.30
2005,11,03,15,35,19.30
2005,11,03,15,36,17.70
2005,11,03,15,37,30.60
2005,11,03,15,38,19.30
2005,11,03,15,39,6.40
2005,11,03,15,40,20.90
2005,11,03,15,41,17.70
2005,11,03,15,42,17.70
2005,11,03,15,43,17.70
2005,11,03,15,44,20.90
2005,11,03,15,45,0.00
2005,11,03,15,46,17.70
2005,11,03,15,47,19.30
2005,11,03,15,48,9.60
2005,11,03,15,49,11.30
2005,11,03,15,50,1.60
2005,11,03,15,51,14.50
2005,11,03,15,52,11.30
2005,11,03,15,53,4.80
2005,11,03,15,54,8.10
2005,11,03,15,55,14.50
2005,11,03,15,56,11.30
2005,11,03,15,57,11.30
2005,11,03,15,58,19.30
2005,11,03,15,59,11.30
2005,11,03,16,00,8.10
2005,11,03,16,01,3.20
2005,11,03,16,02,16.10
2005,11,03,16,03,14.50
2005,11,03,16,04,11.30
2005,11,03,16,05,11.30
2005,11,03,16,06,8.10
2005,11,03,16,07,17.70
2005,11,03,16,08,17.70
2005,11,03,16,09,17.70
2005,11,03,16,10,16.10
2005,11,03,16,11,17.70
2005,11,03,16,12,20.90
2005,11,03,16,13,8.10
2005,11,03,16,14,20.90
2005,11,03,16,15,14.50
2005,11,03,16,16,8.10
2005,11,03,16,17,20.90
2005,11,03,16,18,16.10
2005,11,03,16,19,9.60
2005,11,03,16,20,19.30
2005,11,03,16,21,16.10
2005,11,03,16,22,8.10
2005,11,03,16,23,24.20
2005,11,03,16,24,11.30
2005,11,03,16,25,17.70
2005,11,03,16,26,16.10
2005,11,03,16,27,4.80
2005,11,03,16,28,9.60
2005,11,03,16,29,9.60
2005,11,03,16,30,11.30
2005,11,03,16,31,9.60
2005,11,03,16,32,19.30
2005,11,03,16,33,19.30
2005,11,03,16,34,9.60
2005,11,03,16,35,9.60
2005,11,03,16,36,14.50
2005,11,03,16,37,8.10
2005,11,03,16,38,11.30
2005,11,03,16,39,14.50
2005,11,03,16,40,6.40
2005,11,03,16,41,9.60
2005,11,03,16,42,17.70
2005,11,03,16,43,9.60
2005,11,03,16,44,14.50
2005,11,03,16,45,8.10
2005,11,03,16,46,8.10
2005,11,03,16,47,3.20
2005,11,03,16,48,8.10
2005,11,03,16,49,6.40
2005,11,03,16,50,12.90
2005,11,03,16,51,6.40
2005,11,03,16,52,20.90
2005,11,03,16,53,17.70
2005,11,03,16,54,24.20
2005,11,03,16,55,11.30
2005,11,03,16,56,11.30
2005,11,03,16,57,14.50
2005,11,03,16,58,9.60
2005,11,03,16,59,9.60
2005,11,03,17,00,9.60
2005,11,03,17,01,9.60
2005,11,03,17,02,9.60
2005,11,03,17,03,6.40
2005,11,03,17,04,9.60
2005,11,03,17,05,19.30
2005,11,03,17,06,9.60
2005,11,03,17,07,8.10
2005,11,03,17,08,8.10
2005,11,03,17,09,14.50
2005,11,03,17,10,6.40
2005,11,03,17,11,8.10
2005,11,03,17,12,8.10
2005,11,03,17,13,6.40
2005,11,03,17,14,4.80
2005,11,03,17,15,4.80
2005,11,03,17,16,9.60
2005,11,03,17,17,3.20
2005,11,03,17,18,8.10
2005,11,03,17,19,16.10
2005,11,03,17,20,6.40
2005,11,03,17,21,3.20
2005,11,03,17,22,9.60
2005,11,03,17,23,8.10
2005,11,03,17,24,12.90
2005,11,03,17,25,11.30
2005,11,03,17,26,8.10
2005,11,03,17,27,17.70
2005,11,03,17,28,9.60
2005,11,03,17,29,17.70
2005,11,03,17,30,12.90
2005,11,03,17,31,14.50
2005,11,03,17,32,22.50
2005,11,03,17,33,16.10
2005,11,03,17,34,16.10
2005,11,03,17,35,16.10
2005,11,03,17,36,24.20
2005,11,03,17,37,20.90